Location: Corralito
(10.2667°N, 66.9500°W)
Time: 18:15:14
(UTC+00:00)

Cosmos 2251 Rocket - Pass Details

Date: 23 March 2023
Orbit: 764 x 791 km, 74.0° (Epoch: 08 June)

Event Time Altitude Azimuth Distance (km) Brightness Sun altitude
Rises 23:44:56 0° 338° (NNW) 3,217 7.1 -17.1°
Reaches altitude 10° 23:47:22 10° 333° (NNW) 2,291 6.4 -17.7°
Maximum altitude 23:52:22 49° 259° (WSW) 971 4.4 -18.9°
Drops below altitude 10° 23:57:23 10° 184° (S) 2,296 6.0 -20.2°
Sets 23:59:49 0° 179° (S) 3,225 6.7 -20.8°
